TimeEDT,TemperatureF,Dew PointF,Humidity,Sea Level PressureIn,VisibilityMPH,Wind Direction,Wind SpeedMPH,Gust SpeedMPH,PrecipitationIn,Events,Conditions,WindDirDegrees,DateUTC
1:54 AM,33.1,28.0,82,30.28,10.0,SSE,4.6,-,N/A,,Mostly Cloudy,150,2013-03-11 05:54:00
2:54 AM,34.0,28.9,82,30.25,10.0,SSE,4.6,-,0.00,Rain,Light Rain,150,2013-03-11 06:54:00
3:54 AM,33.1,28.9,85,30.22,10.0,South,5.8,-,0.00,,Partly Cloudy,190,2013-03-11 07:54:00
4:54 AM,33.1,28.9,85,30.21,10.0,Calm,Calm,-,N/A,,Clear,0,2013-03-11 08:54:00
5:54 AM,32.0,28.9,88,30.21,10.0,Calm,Calm,-,N/A,,Clear,0,2013-03-11 09:54:00
6:54 AM,30.9,28.9,92,30.21,10.0,Calm,Calm,-,N/A,,Clear,0,2013-03-11 10:54:00
7:54 AM,32.0,28.9,88,30.22,10.0,Calm,Calm,-,N/A,,Clear,0,2013-03-11 11:54:00
8:54 AM,35.1,30.0,82,30.23,10.0,Calm,Calm,-,N/A,,Clear,0,2013-03-11 12:54:00
9:54 AM,37.0,30.9,79,30.22,10.0,Calm,Calm,-,N/A,,Clear,0,2013-03-11 13:54:00
10:54 AM,39.0,30.9,73,30.22,10.0,Calm,Calm,-,0.00,,Clear,0,2013-03-11 14:54:00
11:54 AM,42.1,30.0,62,30.19,10.0,East,3.5,-,N/A,,Clear,90,2013-03-11 15:54:00
12:54 PM,48.0,28.9,48,30.18,10.0,NE,4.6,-,N/A,,Clear,50,2013-03-11 16:54:00
1:54 PM,51.1,24.1,35,30.16,10.0,SW,5.8,-,N/A,,Clear,220,2013-03-11 17:54:00
2:54 PM,52.0,25.0,35,30.14,10.0,South,3.5,-,N/A,,Clear,190,2013-03-11 18:54:00
3:54 PM,51.1,24.1,35,30.14,10.0,South,8.1,-,N/A,,Clear,190,2013-03-11 19:54:00
4:54 PM,50.0,25.0,38,30.13,10.0,SSW,5.8,-,N/A,,Clear,200,2013-03-11 20:54:00
5:54 PM,48.9,26.1,41,30.13,10.0,SSW,5.8,-,N/A,,Clear,210,2013-03-11 21:54:00
7:54 PM,42.1,30.9,65,30.14,10.0,Calm,Calm,-,N/A,,Scattered Clouds,0,2013-03-11 23:54:00
8:54 PM,43.0,30.0,60,30.14,10.0,SSE,5.8,-,N/A,,Clear,160,2013-03-12 00:54:00
9:54 PM,43.0,30.9,62,30.14,10.0,SSE,5.8,-,N/A,,Clear,150,2013-03-12 01:54:00
10:54 PM,41.0,33.1,73,30.14,10.0,SE,4.6,-,N/A,,Clear,130,2013-03-12 02:54:00